Regional Weather Roundup
Issued by NWS New Orleans/Baton Rouge, LA

Home | Current Version | Previous Version | Text Only | Print | Product List | Glossary On
Versions: 1 2 3 4 5 6 7 8 9 10 11 12 13 14 15 16 17 18 19 20 21 22 23 24 25 26 27 28 29 30 31 32 33 34 35 36 37 38 39 40 41 42 43 44 45 46 47 48 49 50
886
ASUS44 KLIX 270010
RWRLIX
NEW ORLEANS REGIONAL WEATHER ROUNDUP
NATIONAL WEATHER SERVICE NEW ORLEANS LA
600 PM CST WED NOV 26 2014

NOTE: "FAIR" INDICATES FEW OR NO CLOUDS BELOW 12,000 FEET WITH NO
      SIGNIFICANT WEATHER AND/OR OBSTRUCTIONS TO VISIBILITY.
      SKY/WX - SKY CONDITION AND SIGNIFICANT WEATHER.
      TMP - AIR TEMPERATURE.     DP    - DEWPOINT TEMPERATURE.
      RH  - RELATIVE HUMIDITY.   PRES  - PRESSURE.
      HI  - HEAT INDEX.          WCI   - WIND CHILL INDEX.

*  THESE STATIONS ARE NOT NWS OR FAA STATIONS AND ARE NOT UNDER
   NWS QUALITY CONTROL.

LAZ038-040-048-061>063-065>067-069-270100-
SOUTHEAST LOUISIANA

CITY           SKY/WX    TMP DP  RH WIND       PRES   REMARKS
N.O. AUDUBON     N/A     60  44  57 MISG        N/A
6HR MIN TEMP:  60; 6HR MAX TEMP:  68;

N.O. INTL ARPT PTCLDY    61  41  47 SW9       30.20R
6HR MIN TEMP:  61; 6HR MAX TEMP:  69;

N.O. LAKEFRONT CLEAR     62  42  47 SW13      30.20R
6HR MIN TEMP:  62; 6HR MAX TEMP:  68;

N.O. DOWNTOWN*   N/A     63  37  39 SW9       30.20S
6HR MIN TEMP:  63; 6HR MAX TEMP:  70;

SLIDELL        CLEAR     62  41  46 SW8       30.17R
6HR MIN TEMP:  59; 6HR MAX TEMP:  65;

BATON ROUGE    CLEAR     62  37  39 SW13      30.18R
6HR MIN TEMP:  61; 6HR MAX TEMP:  70;

BOOTHVILLE     CLEAR     60  44  55 W9        30.24R
6HR MIN TEMP:  58; 6HR MAX TEMP:  62;

BELLE CHASSE   CLEAR     55  40  56 SW7       30.20R
6HR MIN TEMP:  55; 6HR MAX TEMP:  69;

BOGALUSA*        N/A     55  40  59 SW5       30.17R
6HR MIN TEMP:  52; 6HR MAX TEMP:  68;

NEW ROADS*       N/A     61  40  46 SW8       30.19R
6HR MIN TEMP:  61; 6HR MAX TEMP:  69;

GONZALES*        N/A     60  45  56 SW5       30.20R
6HR MIN TEMP:  60; 6HR MAX TEMP:  70;

HAMMOND*       CLEAR     63  34  34 SW7       30.18R
HOUMA*         CLEAR     57  43  58 SW3       30.23R
PORT FOURCHON* CLEAR     63  48  59 W8        30.27R

$$

MSZ070-080>082-270100-
SOUTHERN MISSISSIPPI

CITY           SKY/WX    TMP DP  RH WIND       PRES   REMARKS
MCCOMB         CLEAR     59  37  44 SW5       30.15R
6HR MIN TEMP:  59; 6HR MAX TEMP:  67;

GULFPORT       CLEAR     56  46  69 S5        30.17F
6HR MIN TEMP:  55; 6HR MAX TEMP:  58;

BILOXI         CLEAR     55  47  74 SW12      30.18S
6HR MIN TEMP:  54; 6HR MAX TEMP:  58;

PASCAGOULA     CLEAR     53  44  71 SW5       30.19S
6HR MIN TEMP:  47; 6HR MAX TEMP:  62;


$$

COASTAL OBSERVATIONS
LAKE AND NEARSHORE STATIONS

STATION/POSITION TIME  TEMP    WIND        PRES    WAVE
                       AIR SEA DIR/SP/G            HT/PER
                 (UTC) (F)     (DEG/KT/KT) (MB)    (FT/S)
PASCAGOULA       0000   58     220/ 12/ 17 1021.7
WAVELAND YACHT   0000   58     230/  8/ 16 1020.9
GRAND ISLE       0000   60 60  250/  7/ 10 1024.2
SOUTHWEST PASS   0000   63                 1023.9
NEW CANAL        0000      55  220/  8/ 11 1022.7
SHELL BEACH      0000   59 53  210/ 11/ 14 1022.3

OFFSHORE STATIONS

STATION/POSITION TIME  TEMP    WIND        PRES    WAVE
                       AIR SEA DIR/SP/G            HT/PER
                 (UTC) (F)     (DEG/KT/KT) (MB)    (FT/S)

$$




USA.gov is the U.S. government's official web portal to all federal, state and local government web resources and services.